Location: Bo?a Wola
(50.4192°N, 19.7966°E)
Time: 13:30:30
(UTC+00:00)

CZ-2D R/B - Pass Details

Date: 15 June 2024
Orbit: 789 x 844 km, 98.8° (Epoch: 15 July)

Event Time Altitude Azimuth Distance (km) Brightness Sun altitude
Rises 00:10:09 0° 20° (NNE) 3,374 7.4 -13.7°
Reaches altitude 10° 00:12:41 10° 28° (NNE) 2,428 6.0 -13.5°
Maximum altitude 00:17:42 40° 97° (E) 1,186 3.1 -13.2°
Enters shadow 00:22:28 11° 166° (SSE) 2,318 4.0 -12.9°
